Location: Sperry Observatory
(40.6664°N, 74.3236°W)
Time: 17:52:05
(UTC-04:00)

Amateur Radio Satellites - All Passes

Search period start: 23 September 2017 17:22
Search period end: 24 September 2017 17:22
Location: Sperry Observatory, 40.6664°N, 74.3236°W

Satellite Date Start Highest point End Downlink Frequencies (MHz)
Time Altitude Azimuth
LilacSat-2 23 Sep 17:23:26 17:26:21 21° 68° (ENE) 17:29:17 437.200
KAITUO 1B 23 Sep 17:42:06 17:45:08 23° 69° (ENE) 17:48:10 145.475/437.950
MOZHAYETS 4 23 Sep 17:53:32 17:55:20 12° 299° (WNW) 17:57:07
XW-2D 23 Sep 18:10:35 18:14:25 75° 75° (ENE) 18:18:16 145.860 - 145.880
HO-68 23 Sep 18:10:57 18:17:06 32° 62° (ENE) 18:23:15 435.675
KKS-1 23 Sep 18:12:00 18:16:28 88° 284° (WNW) 18:20:55 437.445
CUBESAT XI-V 23 Sep 18:17:43 18:21:38 28° 292° (WNW) 18:25:31 437.345
XW-2B 23 Sep 18:22:56 18:26:46 79° 258° (WSW) 18:30:38 145.730 - 145.750
XW-2F 23 Sep 18:23:00 18:26:50 83° 258° (WSW) 18:30:42 145.980 - 146.000
CUTE-I 23 Sep 18:28:20 18:33:39 90° 245° (WSW) 18:38:59 437.470
DOVE 4 23 Sep 18:36:33 18:39:27 17° 267° (W) 18:42:16 437.250
STARS 23 Sep 18:36:38 18:41:02 70° 101° (ESE) 18:45:26 437.465
XW-2C 23 Sep 18:44:32 18:48:10 40° 262° (W) 18:51:50 145.795 - 145.815
NUDT-PHONESAT 23 Sep 18:46:48 18:50:28 53° 260° (W) 18:54:11 437.300
SEEDS 23 Sep 18:49:36 18:53:01 24° 69° (ENE) 18:56:26 437.485
LilacSat-2 23 Sep 18:57:07 19:00:27 27° 264° (W) 19:03:48 437.200
XW-2A 23 Sep 19:03:23 19:05:51 19° 69° (ENE) 19:08:21 145.665 - 145.685
ZACube-1 23 Sep 19:07:18 19:08:26 11° 61° (ENE) 19:09:35 437.345
AAUSAT CUBESAT 2 23 Sep 19:13:00 19:15:58 19° 67° (ENE) 19:18:57 437.432
NO-84 23 Sep 19:13:54 19:15:58 16° 27° (NNE) 19:17:56 435.350 FM
KAITUO 1B 23 Sep 19:15:58 19:19:01 23° 265° (W) 19:22:05 145.475/437.950
CUTE 1.7 + AOD 2 23 Sep 19:16:29 19:20:45 79° 78° (ENE) 19:25:04 437.475
BEESAT 3 23 Sep 19:32:59 19:36:42 38° 116° (ESE) 19:40:28 437.485
Tancredo 1 23 Sep 19:37:20 19:40:00 67° 141° (SE) 19:42:40 437.200
BEESAT 2 23 Sep 19:41:58 19:44:09 14° 109° (ESE) 19:46:21 435.950
STRAND 1 23 Sep 19:45:02 19:49:32 30° 96° (E) 19:54:01 437.568
CUBEBUG 2 23 Sep 19:45:12 19:49:25 88° 85° (E) 19:53:50 437.445
UWE-3 23 Sep 19:52:10 19:56:22 60° 74° (ENE) 20:00:44 435.000/436.395/437.385
AO-85 23 Sep 19:56:21 19:59:17 21° 112° (ESE) 20:02:15 145.980
HO-68 23 Sep 19:57:39 20:04:31 50° 260° (W) 20:11:28 435.675
ISS 23 Sep 20:02:37 20:04:47 17° 131° (SE) 20:06:57 437.550
CUTE-I 23 Sep 20:13:47 20:14:23 10° 272° (W) 20:14:58 437.470
STARS 23 Sep 20:15:11 20:16:48 12° 298° (WNW) 20:18:24 437.465
SEEDS 23 Sep 20:24:53 20:28:34 28° 264° (W) 20:32:15 437.485
XW-2A 23 Sep 20:35:44 20:38:27 22° 265° (W) 20:41:11 145.665 - 145.685
Oscar 11 23 Sep 20:36:00 20:40:17 62° 75° (ENE) 20:44:36 .
AO-73 23 Sep 20:36:50 20:41:10 90° 30° (NNE) 20:45:37 145.935
ZACube-1 23 Sep 20:39:43 20:44:01 75° 259° (WSW) 20:48:29 437.345
nSIGHT-1 23 Sep 20:40:58 20:44:03 45° 138° (SE) 20:47:10 .
DELFI C3 23 Sep 20:42:18 20:44:36 15° 66° (ENE) 20:46:54 145.870
AAUSAT CUBESAT 2 23 Sep 20:47:22 20:51:10 34° 263° (W) 20:54:59 437.432
NO-84 23 Sep 20:50:40 20:53:34 52° 226° (SW) 20:56:20 435.350 FM
BEESAT 3 23 Sep 21:11:16 21:14:23 21° 313° (NW) 21:17:31 437.485
EO-88 23 Sep 21:12:08 21:14:33 17° 68° (ENE) 21:17:00 145.990 - 145.960
Tancredo 1 23 Sep 21:12:55 21:14:44 16° 339° (NNW) 21:16:34 437.200
FO-29 23 Sep 21:16:59 21:21:44 28° 97° (E) 21:26:54 435.910
BEESAT 2 23 Sep 21:17:33 21:21:27 49° 306° (NW) 21:25:25 435.950
SO-50 23 Sep 21:22:23 21:23:41 11° 36° (NE) 21:24:58 436.795
STRAND 1 23 Sep 21:24:07 21:28:40 33° 292° (WNW) 21:33:13 437.568
UWE-3 23 Sep 21:31:45 21:33:16 12° 271° (W) 21:34:46 435.000/436.395/437.385
YUBILEINY 23 Sep 21:34:49 21:35:56 10° 54° (NE) 21:37:02 435.215
AO-85 23 Sep 21:35:58 21:39:27 31° 310° (NW) 21:43:01 145.980
ISS 23 Sep 21:37:45 21:40:58 53° 327° (NNW) 21:44:12 437.550
Max Valier Satellite 23 Sep 21:43:44 21:47:22 57° 75° (ENE) 21:51:03 145.860
UNISAT 6 23 Sep 22:08:56 22:12:57 28° 95° (E) 22:16:57 437.425
LO-87 23 Sep 22:10:26 22:10:45 10° 65° (ENE) 22:11:05 145.935 - 145.965
DELFI C3 23 Sep 22:15:16 22:19:00 40° 261° (W) 22:22:45 145.870
Oscar 11 23 Sep 22:15:25 22:16:48 11° 270° (W) 22:18:12 .
nSIGHT-1 23 Sep 22:17:44 22:20:30 25° 336° (NNW) 22:23:16 .
TIGRISAT 23 Sep 22:32:15 22:36:45 44° 99° (E) 22:41:14 435.000
EO-88 23 Sep 22:44:43 22:47:58 30° 263° (W) 22:51:15 145.990 - 145.960
ESTCUBE 1 23 Sep 22:45:24 22:49:01 24° 67° (ENE) 22:52:39 437.505/2401.250
SO-50 23 Sep 23:00:27 23:05:02 64° 55° (NE) 23:09:37 436.795
FO-29 23 Sep 23:01:49 23:06:53 39° 290° (WNW) 23:12:26 435.910
PRISM 23 Sep 23:04:53 23:08:53 53° 101° (E) 23:12:50 437.425
PCSat 23 Sep 23:11:46 23:16:27 28° 50° (NE) 23:21:06 145.827
SPROUT 23 Sep 23:14:28 23:15:48 11° 62° (ENE) 23:17:09 437.525
ISS 23 Sep 23:15:56 23:18:01 15° 346° (NNW) 23:20:06 437.550
AIST 2D 23 Sep 23:25:32 23:27:57 17° 94° (E) 23:30:20 435.315
YUBILEINY 23 Sep 23:26:21 23:34:57 57° 78° (ENE) 23:43:31 435.215
LO-87 23 Sep 23:40:17 23:43:43 49° 261° (W) 23:47:10 145.935 - 145.965
UNISAT 6 23 Sep 23:45:31 23:49:34 30° 291° (WNW) 23:53:39 437.425
NANOSAT C BR1 23 Sep 23:51:00 23:53:00 13° 91° (E) 23:54:58 145.865
nSIGHT-1 23 Sep 23:56:15 23:57:41 12° 355° (N) 23:59:08 .
TIGRISAT 24 Sep 00:09:45 00:13:05 20° 294° (WNW) 00:16:25 435.000
DUCHIFAT 1 24 Sep 00:18:09 00:21:35 23° 95° (E) 00:24:59 145.980
ESTCUBE 1 24 Sep 00:21:34 00:25:39 32° 263° (W) 00:29:44 437.505/2401.250
DX 1 24 Sep 00:23:44 00:25:51 13° 63° (ENE) 00:27:58 434.975-435.025
Tancredo 1 24 Sep 00:23:59 00:25:33 14° 19° (NNE) 00:27:06 437.200
POLYITAN 1 24 Sep 00:31:41 00:35:47 42° 99° (E) 00:39:52 437.675
EO-79 24 Sep 00:35:53 00:40:02 47° 99° (E) 00:44:10 145.935-145.965
PRISM 24 Sep 00:41:52 00:43:41 13° 296° (WNW) 00:45:29 437.425
SO-50 24 Sep 00:42:32 00:44:58 14° 251° (WSW) 00:47:24 436.795
SPROUT 24 Sep 00:46:55 00:51:06 67° 258° (WSW) 00:55:21 437.525
VELOX 1 24 Sep 00:49:05 00:53:29 87° 256° (WSW) 00:57:54 145.980
QB50P2 24 Sep 00:49:28 00:53:47 77° 103° (ESE) 00:58:03 145.880/145.840
BUGSAT 1 24 Sep 00:53:26 00:55:52 15° 92° (E) 00:58:19 437.445
ISS 24 Sep 00:53:54 00:55:33 13° 7° (N) 00:57:11 437.550
PCSat 24 Sep 00:54:52 01:00:00 44° 248° (WSW) 01:05:04 145.827
AIST 2D 24 Sep 00:58:10 01:01:07 25° 289° (WNW) 01:04:03 435.315
50 SAT 24 Sep 01:02:31 01:05:35 37° 73° (ENE) 01:08:40 437.505
YUBILEINY 24 Sep 01:23:58 01:31:12 30° 277° (W) 01:38:27 435.215
NANOSAT C BR1 24 Sep 01:24:50 01:28:59 52° 287° (WNW) 01:33:07 145.865
nSIGHT-1 24 Sep 01:32:52 01:35:03 16° 16° (NNE) 01:37:14 .
UKube-1 24 Sep 01:49:43 01:54:00 73° 74° (ENE) 01:58:18 .
DUCHIFAT 1 24 Sep 01:53:31 01:57:12 29° 291° (WNW) 02:00:53 145.980
DX 1 24 Sep 01:57:16 02:01:32 58° 259° (WSW) 02:05:50 434.975-435.025
Gurwin Techsat 1B 24 Sep 01:57:18 02:01:36 24° 94° (E) 02:05:52 435.225
Tancredo 1 24 Sep 01:57:42 02:00:24 84° 38° (NE) 02:03:05 437.200
POLYITAN 1 24 Sep 02:08:24 02:11:13 17° 295° (WNW) 02:14:02 437.675
Oscar 19 24 Sep 02:09:48 02:14:47 47° 99° (E) 02:19:42 437.125/150
ITUPSAT 1 24 Sep 02:12:06 02:15:04 17° 63° (ENE) 02:18:03 437.325
EO-79 24 Sep 02:12:50 02:15:23 16° 295° (WNW) 02:17:55 145.935-145.965
M-CUBED/EXP-1 PRIME 24 Sep 02:16:01 02:19:13 47° 291° (WNW) 02:22:21 437.505
BUGSAT 1 24 Sep 02:27:24 02:31:25 45° 288° (WNW) 02:35:27 437.445
QB50P2 24 Sep 02:28:23 02:28:55 10° 299° (WNW) 02:29:27 145.880/145.840
ISS 24 Sep 02:29:52 02:32:50 30° 26° (NNE) 02:35:47 437.550
50 SAT 24 Sep 02:37:37 02:38:14 10° 268° (W) 02:38:51 437.505
O/OREOS (USA 219) 24 Sep 02:45:45 02:50:15 89° 299° (WNW) 02:54:49 437.305
BEESAT 24 Sep 02:46:56 02:51:15 36° 69° (ENE) 02:55:37 436.000
AO-7 24 Sep 02:53:32 02:57:49 15° 89° (E) 03:02:05 .
nSIGHT-1 24 Sep 03:08:37 03:11:52 66° 35° (NE) 03:15:06 .
MOZHAYETS 4 24 Sep 03:15:16 03:19:51 67° 75° (ENE) 03:24:28
ITAMSAT 1 24 Sep 03:17:28 03:19:37 12° 90° (E) 03:21:46 435.822/435.867
Gurwin Techsat 1B 24 Sep 03:36:41 03:41:40 42° 290° (WNW) 03:46:37 435.225
CUBESAT XI-V 24 Sep 03:43:10 03:47:10 28° 68° (ENE) 03:51:10 437.345
ITUPSAT 1 24 Sep 03:47:45 03:52:25 55° 259° (W) 03:57:08 437.325
Oscar 19 24 Sep 03:49:53 03:53:45 22° 296° (WNW) 03:57:36 437.125/150
BEESAT 3 24 Sep 03:50:05 03:53:17 22° 47° (NE) 03:56:25 437.485
RS-15 24 Sep 03:59:13 04:08:29 26° 101° (E) 04:17:47 29.354- 29.394
BEESAT 2 24 Sep 03:59:36 04:00:52 11° 39° (NE) 04:02:09 435.950
ISS 24 Sep 04:06:17 04:09:20 35° 224° (SW) 04:12:22 437.550
BEESAT 24 Sep 04:25:19 04:29:05 23° 265° (W) 04:32:53 436.000
AO-85 24 Sep 04:26:15 04:29:45 22° 47° (NE) 04:33:26 145.980
O/OREOS (USA 219) 24 Sep 04:29:26 04:30:22 11° 310° (NW) 04:31:19 437.305
AO-7 24 Sep 04:43:24 04:51:44 81° 107° (ESE) 05:00:02 .
nSIGHT-1 24 Sep 04:46:11 04:47:49 13° 230° (SW) 04:49:27 .
ITAMSAT 1 24 Sep 04:54:24 04:59:37 76° 286° (WNW) 05:04:49 435.822/435.867
MOZHAYETS 4 24 Sep 04:55:47 04:57:26 12° 271° (W) 04:59:06
KKS-1 24 Sep 05:09:19 05:13:44 82° 75° (ENE) 05:18:11 437.445
CUBESAT XI-V 24 Sep 05:20:20 05:24:26 29° 264° (W) 05:28:32 437.345
BEESAT 3 24 Sep 05:27:18 05:30:54 34° 245° (WSW) 05:34:26 437.485
STARS 24 Sep 05:32:35 05:36:50 58° 73° (ENE) 05:41:08 437.465
BEESAT 2 24 Sep 05:35:12 05:39:16 84° 55° (NE) 05:43:16 435.950
XW-2B 24 Sep 05:58:07 05:59:01 11° 90° (E) 05:59:55 145.730 - 145.750
AO-85 24 Sep 06:06:01 06:10:20 46° 243° (WSW) 06:14:58 145.980
RS-15 24 Sep 06:07:11 06:19:30 86° 301° (WNW) 06:31:54 29.354- 29.394
XW-2C 24 Sep 06:17:47 06:20:37 20° 94° (E) 06:23:26 145.795 - 145.815
NUDT-PHONESAT 24 Sep 06:18:32 06:20:30 14° 92° (E) 06:22:27 437.300
LilacSat-2 24 Sep 06:30:12 06:33:37 30° 97° (E) 06:36:58 437.200
DOVE 4 24 Sep 06:33:05 06:37:18 67° 285° (WNW) 06:41:43 437.250
AO-7 24 Sep 06:37:24 06:43:36 24° 307° (NW) 06:49:48 .
ITAMSAT 1 24 Sep 06:37:50 06:38:10 10° 303° (WNW) 06:38:31 435.822/435.867
CUTE-I 24 Sep 06:45:51 06:50:46 37° 98° (E) 06:55:40 437.470
KAITUO 1B 24 Sep 06:46:37 06:50:01 32° 97° (E) 06:53:22 145.475/437.950
STRAND 1 24 Sep 07:00:30 07:05:15 41° 69° (ENE) 07:10:01 437.568
CUTE 1.7 + AOD 2 24 Sep 07:03:12 07:05:22 14° 91° (E) 07:07:31 437.475
STARS 24 Sep 07:11:47 07:13:32 12° 269° (W) 07:15:17 437.465
XW-2D 24 Sep 07:17:20 07:21:08 69° 283° (WNW) 07:24:53 145.860 - 145.880
HO-68 24 Sep 07:25:37 07:32:02 33° 96° (E) 07:38:23 435.675
XW-2F 24 Sep 07:29:20 07:33:03 52° 286° (WNW) 07:36:42 145.980 - 146.000
XW-2B 24 Sep 07:29:47 07:33:29 49° 286° (WNW) 07:37:08 145.730 - 145.750
FO-29 24 Sep 07:33:56 07:34:55 10° 59° (ENE) 07:35:54 435.910
CUBEBUG 2 24 Sep 07:36:35 07:40:09 21° 93° (E) 07:43:43 437.445
UWE-3 24 Sep 07:43:20 07:45:46 14° 90° (E) 07:48:11 435.000/436.395/437.385
NUDT-PHONESAT 24 Sep 07:51:04 07:54:31 36° 288° (WNW) 07:57:56 437.300
XW-2C 24 Sep 07:51:33 07:54:47 27° 290° (WNW) 07:58:00 145.795 - 145.815
XW-2A 24 Sep 07:57:21 07:59:58 20° 95° (E) 08:02:32 145.665 - 145.685
LilacSat-2 24 Sep 08:04:59 08:07:39 18° 292° (WNW) 08:10:20 437.200
SEEDS 24 Sep 08:08:13 08:12:15 46° 99° (E) 08:16:15 437.485
KAITUO 1B 24 Sep 08:21:20 08:23:44 17° 293° (WNW) 08:26:07 145.475/437.950
RS-15 24 Sep 08:23:16 08:33:59 33° 328° (NNW) 08:44:39 29.354- 29.394
Oscar 11 24 Sep 08:25:38 08:27:10 12° 90° (E) 08:28:42 .
AO-73 24 Sep 08:25:51 08:29:05 19° 92° (E) 08:32:17 145.935
CUTE-I 24 Sep 08:26:09 08:30:39 28° 294° (WNW) 08:35:08 437.470
ZACube-1 24 Sep 08:28:44 08:32:22 23° 94° (E) 08:35:58 437.345
AAUSAT CUBESAT 2 24 Sep 08:29:22 08:33:08 34° 97° (E) 08:36:51 437.432
CUTE 1.7 + AOD 2 24 Sep 08:37:22 08:41:27 48° 287° (WNW) 08:45:30 437.475
STRAND 1 24 Sep 08:40:34 08:44:32 23° 266° (W) 08:48:33 437.568
UNISAT 6 24 Sep 09:07:49 09:11:11 22° 67° (ENE) 09:14:37 437.425
CUBEBUG 2 24 Sep 09:12:27 09:16:51 40° 288° (WNW) 09:21:17 437.445
HO-68 24 Sep 09:13:04 09:19:51 47° 294° (WNW) 09:26:39 435.675
FO-29 24 Sep 09:13:34 09:19:18 83° 75° (ENE) 09:24:36 435.910
UWE-3 24 Sep 09:17:57 09:22:33 59° 286° (WNW) 09:27:08 435.000/436.395/437.385
XW-2A 24 Sep 09:29:57 09:32:34 21° 291° (WNW) 09:35:12 145.665 - 145.685
TIGRISAT 24 Sep 09:30:38 09:34:34 35° 70° (ENE) 09:38:37 435.000
SEEDS 24 Sep 09:45:08 09:47:32 15° 295° (WNW) 09:49:56 437.485
DELFI C3 24 Sep 09:52:34 09:55:43 23° 95° (E) 09:58:51 145.870
PRISM 24 Sep 09:53:37 09:57:21 35° 71° (ENE) 10:01:05 437.425
Oscar 11 24 Sep 09:59:23 10:03:40 60° 286° (WNW) 10:07:55 .
AO-73 24 Sep 10:01:09 10:05:28 41° 288° (WNW) 10:09:43 145.935
ZACube-1 24 Sep 10:04:31 10:08:41 34° 290° (WNW) 10:12:48 437.345
AAUSAT CUBESAT 2 24 Sep 10:05:26 10:08:19 19° 293° (WNW) 10:11:12 437.432
EO-88 24 Sep 10:13:38 10:16:30 21° 95° (E) 10:19:20 145.990 - 145.960
YUBILEINY 24 Sep 10:38:15 10:40:05 11° 73° (ENE) 10:41:53 435.215
RS-15 24 Sep 10:43:05 10:51:55 22° 3° (N) 11:00:33 29.354- 29.394
UNISAT 6 24 Sep 10:43:47 10:47:41 33° 263° (W) 10:51:42 437.425
Max Valier Satellite 24 Sep 10:47:23 10:51:09 84° 102° (ESE) 10:54:52 145.860
FO-29 24 Sep 11:03:29 11:04:56 11° 270° (W) 11:06:23 435.910
TIGRISAT 24 Sep 11:08:08 11:11:21 20° 267° (W) 11:14:38 435.000
LO-87 24 Sep 11:08:45 11:10:19 12° 92° (E) 11:11:53 145.935 - 145.965
DUCHIFAT 1 24 Sep 11:10:10 11:12:52 17° 65° (ENE) 11:15:35 145.980
O/OREOS (USA 219) 24 Sep 11:17:44 11:20:56 18° 55° (NE) 11:24:07 437.305
POLYITAN 1 24 Sep 11:23:53 11:27:33 30° 70° (ENE) 11:31:15 437.675
DELFI C3 24 Sep 11:27:12 11:30:24 24° 291° (WNW) 11:33:35 145.870
EO-79 24 Sep 11:27:51 11:31:37 33° 70° (ENE) 11:35:25 145.935-145.965
M-CUBED/EXP-1 PRIME 24 Sep 11:28:01 11:30:34 16° 62° (ENE) 11:33:02 437.505
PRISM 24 Sep 11:29:57 11:32:42 17° 266° (W) 11:35:29 437.425
AIST 2D 24 Sep 11:30:58 11:34:31 81° 258° (WSW) 11:38:06 435.315
QB50P2 24 Sep 11:41:21 11:45:26 52° 73° (ENE) 11:49:34 145.880/145.840
BUGSAT 1 24 Sep 11:45:19 11:45:27 10° 62° (ENE) 11:45:36 437.445
EO-88 24 Sep 11:47:09 11:50:04 23° 290° (WNW) 11:52:58 145.990 - 145.960
NO-84 24 Sep 12:05:58 12:09:01 21° 128° (SE) 12:11:54 435.350 FM
ESTCUBE 1 24 Sep 12:13:41 12:18:04 52° 100° (E) 12:22:26 437.505/2401.250
NANOSAT C BR1 24 Sep 12:15:56 12:20:06 77° 259° (W) 12:24:20 145.865
YUBILEINY 24 Sep 12:26:28 12:35:03 67° 92° (E) 12:43:38 435.215
SPROUT 24 Sep 12:33:21 12:36:35 21° 94° (E) 12:39:49 437.525
VELOX 1 24 Sep 12:40:15 12:43:13 18° 93° (E) 12:46:11 145.980
LO-87 24 Sep 12:40:31 12:43:54 38° 287° (WNW) 12:47:16 145.935 - 145.965
DUCHIFAT 1 24 Sep 12:44:15 12:48:11 40° 262° (W) 12:52:11 145.980
O/OREOS (USA 219) 24 Sep 12:56:11 13:00:37 49° 253° (WSW) 13:05:03 437.305
RS-15 24 Sep 12:58:10 13:09:16 39° 37° (NE) 13:19:49 29.354- 29.394
POLYITAN 1 24 Sep 13:00:03 13:03:20 22° 266° (W) 13:06:39 437.675
M-CUBED/EXP-1 PRIME 24 Sep 13:00:32 13:04:41 46° 255° (WSW) 13:08:35 437.505
EO-79 24 Sep 13:04:20 13:07:26 20° 266° (W) 13:10:33 145.935-145.965
SO-50 24 Sep 13:15:24 13:18:45 21° 112° (ESE) 13:22:07 436.795
BUGSAT 1 24 Sep 13:16:13 13:20:12 69° 258° (WSW) 13:24:16 437.445
Gurwin Techsat 1B 24 Sep 13:17:52 13:22:44 38° 69° (ENE) 13:27:37 435.225
QB50P2 24 Sep 13:19:39 13:21:31 13° 269° (W) 13:23:24 145.880/145.840
Oscar 19 24 Sep 13:26:05 13:31:14 67° 73° (ENE) 13:36:25 437.125/150
UKube-1 24 Sep 13:38:57 13:40:37 12° 91° (E) 13:42:17 .
NO-84 24 Sep 13:42:32 13:46:15 46° 322° (NW) 13:49:42 435.350 FM
DX 1 24 Sep 13:46:04 13:49:33 23° 95° (E) 13:53:02 434.975-435.025
ESTCUBE 1 24 Sep 13:51:47 13:54:26 16° 296° (WNW) 13:57:03 437.505/2401.250
AO-7 24 Sep 13:51:51 13:58:09 25° 54° (NE) 14:04:26 .
PCSat 24 Sep 13:53:40 13:58:00 25° 107° (ESE) 14:02:21 145.827
50 SAT 24 Sep 13:55:05 13:58:10 35° 99° (E) 14:01:14 437.505
SPROUT 24 Sep 14:08:40 14:12:31 33° 290° (WNW) 14:16:23 437.525
VELOX 1 24 Sep 14:15:42 14:19:49 40° 289° (WNW) 14:23:56 145.980
YUBILEINY 24 Sep 14:25:29 14:32:31 27° 293° (WNW) 14:39:35 435.215
ITAMSAT 1 24 Sep 14:34:28 14:38:12 20° 63° (ENE) 14:41:55 435.822/435.867
SO-50 24 Sep 14:54:40 14:58:55 42° 308° (NW) 15:03:13 436.795
Gurwin Techsat 1B 24 Sep 14:58:19 15:02:43 27° 265° (W) 15:07:11 435.225
Oscar 19 24 Sep 15:08:12 15:10:59 14° 269° (W) 15:13:47 437.125/150
RS-15 24 Sep 15:10:56 15:22:50 75° 243° (WSW) 15:34:03 29.354- 29.394
MOZHAYETS 4 24 Sep 15:11:47 15:14:39 16° 92° (E) 15:17:29
UKube-1 24 Sep 15:12:45 15:16:59 58° 287° (WNW) 15:21:12 .
DX 1 24 Sep 15:21:57 15:25:44 30° 291° (WNW) 15:29:30 434.975-435.025
NO-84 24 Sep 15:23:02 15:24:19 12° 340° (NNW) 15:25:34 435.350 FM
50 SAT 24 Sep 15:29:07 15:30:19 12° 294° (WNW) 15:31:30 437.505
PCSat 24 Sep 15:35:54 15:41:05 46° 305° (NW) 15:46:19 145.827
AO-7 24 Sep 15:41:41 15:50:02 80° 253° (WSW) 15:58:24 .
ITUPSAT 1 24 Sep 15:48:28 15:52:57 37° 98° (E) 15:57:23 437.325
DOVE 4 24 Sep 16:04:22 16:05:20 11° 63° (ENE) 16:06:18 437.250
ITAMSAT 1 24 Sep 16:12:15 16:17:15 51° 260° (W) 16:22:18 435.822/435.867
BEESAT 24 Sep 16:24:16 16:29:06 89° 91° (E) 16:33:54 436.000
MOZHAYETS 4 24 Sep 16:47:35 16:52:04 49° 288° (WNW) 16:56:31
XW-2C 24 Sep 17:00:56 17:01:33 10° 64° (ENE) 17:02:10 145.795 - 145.815
KKS-1 24 Sep 17:01:42 17:04:24 16° 93° (E) 17:07:03 437.445
LilacSat-2 24 Sep 17:12:33 17:14:54 16° 66° (ENE) 17:17:15 437.200
